Location: Sternwarte ZA, Rosenfeld-Brittheim
(48.2889°N, 8.6789°E)
Time: 03:56:03
(UTC+02:00)

ISS - Pass Details

Date: 23 May 2017
Orbit: 401 x 408 km, 51.6° (Epoch: 25 June)

Event Time Altitude Azimuth Distance (km) Brightness Sun altitude
Rises 04:20:16 0° 292° (WNW) 2,336 -0.2 -10.4°
Reaches altitude 10° 04:22:22 10° 290° (WNW) 1,471 -1.2 -10.2°
Maximum altitude 04:25:39 71° 207° (SSW) 434 -3.9 -9.8°
Drops below altitude 10° 04:28:55 10° 122° (ESE) 1,459 -0.9 -9.5°
Sets 04:30:59 0° 120° (ESE) 2,314 0.2 -9.2°
